Weather History for Malaga, Spain

Change the Weather History Date:

Sunday, July 14, 2013

  Actual Average Record
Temperature  
Mean Temperature 77 °F -  
Max Temperature 90 °F 84 °F 104 °F (2012)
Min Temperature 64 °F 66 °F 59 °F (2000)
Cooling Degree Days 12    
Growing Degree Days 27 (Base 50)    
Moisture  
Dew Point 58 °F    
Average Humidity 57    
Maximum Humidity 83    
Minimum Humidity 18    
Precipitation  
Precipitation 0.00 in 0.00 in - ()
Sea Level Pressure  
Sea Level Pressure 30.02 in    
Wind  
Wind Speed 5 mph ()    
Max Wind Speed 25 mph    
Max Gust Speed -    
Visibility 9.9 miles    
Events      
Averages and records for this station are not official NWS values.
T = Trace of Precipitation, MM = Missing Value Source: Averaged Metar Reports

Daily Weather History Graph

Daily Weather History Graph

Search for Another Location

Airport:

Trip Planner

Search our weather history database for the weather conditions in past years. The results will help you decide how hot, cold, wet, or windy it might be!

Date:

Astronomy

Jul. 14, 2013 Rise Set
Actual Time 7:10 AM CEST 9:37 PM CEST
Civil Twilight 6:40 AM CEST 10:06 PM CEST
Nautical Twilight 6:03 AM CEST 10:43 PM CEST
Astronomical Twilight 5:22 AM CEST 11:24 PM CEST
Moon 1:01 PM CEST (7/14) 12:20 AM CEST (7/14)
Length of Visible Light 15h 26m
Length of Day
14h 26m
Waxing Crescent, 32% of the Moon is Illuminated
Jul 14
Waxing Crescent
Jul 16
First Quarter
Jul 22
Full
Jul 29
Last Quarter
Aug 6
New

Hourly Weather History & Observations

Time (CEST) Temp. Heat Index Dew Point Humidity Pressure Visibility Wind Dir Wind Speed Gust Speed Precip Events Conditions
12:00 AM 72 °F - 63 °F 65% 30.04 in - Calm Calm - -  
12:00 AM 69.8 °F - 62.6 °F 78% 30.04 in - Calm Calm - N/A   Clear
12:30 AM 69.8 °F - 62.6 °F 78% 30.04 in - Calm Calm - N/A   Clear
1:00 AM 70 °F - 63 °F 72% 30.04 in - West 1.2 mph - -  
1:00 AM 69.8 °F - 62.6 °F 78% 30.04 in - Calm Calm - N/A   Clear
1:30 AM 68.0 °F - 60.8 °F 78% 30.04 in - WNW 1.2 mph - N/A   Clear
2:00 AM 69 °F - 61 °F 68% 30.04 in 9 mi West 4.6 mph - -  
2:00 AM 66.2 °F - 60.8 °F 83% 30.04 in - WNW 3.5 mph - N/A   Clear
2:30 AM 66.2 °F - 60.8 °F 83% 30.04 in - WNW 5.8 mph - N/A   Clear
3:00 AM 67 °F - 57 °F 63% 30.03 in - WNW 8.1 mph - -  
3:00 AM 66.2 °F - 57.2 °F 73% 30.01 in - WNW 8.1 mph - N/A   Clear
3:30 AM 66.2 °F - 59.0 °F 78% 30.01 in - West 5.8 mph - N/A   Clear
4:00 AM 68 °F - 59 °F 67% 30.02 in - WSW 3.5 mph - -  
4:00 AM 66.2 °F - 59.0 °F 78% 30.01 in - WSW 3.5 mph - N/A   Clear
4:30 AM 64.4 °F - 57.2 °F 77% 30.01 in - Calm Calm - N/A   Clear
5:00 AM 66 °F - 58 °F 70% 30.01 in 9 mi West 6.7 mph - -  
5:00 AM 64.4 °F - 59.0 °F 83% 30.01 in - Variable 2.3 mph - N/A   Clear
5:30 AM 62.6 °F - 57.2 °F 82% 30.01 in - Variable 1.2 mph - N/A   Clear
6:00 AM 66 °F - 58 °F 70% 30.01 in - West 2.3 mph - -  
6:00 AM 64.4 °F - 57.2 °F 77% 30.01 in - Variable 2.3 mph - N/A   Clear
6:30 AM 66.2 °F - 57.2 °F 73% 30.01 in - West 4.6 mph - N/A   Clear
7:00 AM 65 °F - 57 °F 68% 30.01 in - West 5.8 mph - -  
7:00 AM 62.6 °F - 57.2 °F 82% 30.01 in - West 3.5 mph - N/A   Clear
7:30 AM 62.6 °F - 57.2 °F 82% 30.01 in - WNW 6.9 mph - N/A   Clear
8:00 AM 69 °F - 58 °F 60% 30.02 in 12 mi WNW 8.1 mph - -  
8:00 AM 66.2 °F - 59.0 °F 78% 30.01 in - NW 6.9 mph - N/A   Clear
8:30 AM 69.8 °F - 59.0 °F 68% 30.01 in - WNW 8.1 mph - N/A   Clear
9:00 AM 73 °F - 60 °F 54% 30.03 in - West 10.4 mph - -  
9:00 AM 71.6 °F - 59.0 °F 64% 30.01 in - WNW 8.1 mph - N/A   Clear
9:30 AM 73.4 °F - 59.0 °F 61% 30.04 in - West 12.7 mph - N/A   Clear
10:00 AM 76 °F - 60 °F 48% 30.04 in - West 13.8 mph - -  
10:00 AM 75.2 °F - 59.0 °F 57% 30.04 in 6.2 mi West 12.7 mph - N/A   Partly Cloudy
10:30 AM 77.0 °F - 59.0 °F 54% 30.04 in 6.2 mi West 12.7 mph - N/A   Partly Cloudy
11:00 AM 79 °F - 59 °F 40% 30.05 in 16 mi West 24.6 mph - -   Scattered Clouds
11:00 AM 77.0 °F - 59.0 °F 54% 30.04 in 6.2 mi West 12.7 mph - N/A   Partly Cloudy
11:30 AM 80.6 °F 80.8 °F 57.2 °F 45% 30.04 in - WSW 6.9 mph - N/A   Clear
12:00 PM 81 °F - 62 °F 42% 30.05 in - SE 9.2 mph - -  
12:00 PM 78.8 °F - 59.0 °F 51% 30.04 in - SE 9.2 mph - N/A   Clear
12:30 PM 78.8 °F - 57.2 °F 47% 30.04 in - SSE 8.1 mph - N/A   Clear
1:00 PM 83 °F - 59 °F 34% 30.05 in - SE 10.4 mph - -  
1:00 PM 80.6 °F 80.5 °F 55.4 °F 42% 30.04 in - SE 9.2 mph - N/A   Clear
1:30 PM 84.2 °F - 51.8 °F 33% 30.04 in - SE 6.9 mph - N/A   Clear
2:00 PM 84 °F - 56 °F 28% 30.04 in 16 mi SE 11.5 mph - -  
2:00 PM 82.4 °F - 50.0 °F 32% 30.04 in - SE 8.1 mph - N/A   Clear
2:30 PM 82.4 °F - 50.0 °F 32% 30.04 in - SE 8.1 mph - N/A   Clear
3:00 PM 89 °F - 51 °F 18% 30.03 in - SE 20.1 mph - -  
3:00 PM 86.0 °F - 48.2 °F 27% 30.04 in - SE 9.2 mph - N/A   Clear
3:30 PM 84.2 °F - 46.4 °F 27% 30.01 in - SE 10.4 mph - N/A   Clear
4:00 PM 88 °F - 50 °F 18% 30.02 in - ESE 10.4 mph - -  
4:00 PM 86.0 °F - 50.0 °F 29% 30.01 in - ESE 10.4 mph - N/A   Clear
4:30 PM 86.0 °F - 46.4 °F 25% 30.01 in - ESE 6.9 mph - N/A   Clear
5:00 PM 88 °F - 56 °F 24% 30.01 in 16 mi ESE 17.9 mph - -   Scattered Clouds
5:00 PM 86.0 °F 84.2 °F 53.6 °F 33% 30.01 in - ESE 8.1 mph - N/A   Clear
5:30 PM 84.2 °F - 48.2 °F 29% 30.01 in - SE 8.1 mph - N/A   Clear
6:00 PM 88 °F - 53 °F 20% 30.00 in - East 9.2 mph - -  
6:00 PM 84.2 °F - 48.2 °F 29% 30.01 in - East 8.1 mph - N/A   Clear
6:30 PM 86.0 °F - 50.0 °F 29% 29.98 in - East 5.8 mph - N/A   Clear
7:00 PM 86 °F - 63 °F 35% 29.99 in - East 6.9 mph - -  
7:00 PM 82.4 °F 82.5 °F 59.0 °F 45% 29.98 in 6.2 mi East 5.8 mph - N/A   Partly Cloudy
7:30 PM 78.8 °F - 64.4 °F 61% 29.98 in 6.2 mi ENE 8.1 mph - N/A   Partly Cloudy
8:00 PM 77 °F - 65 °F 57% 29.99 in 16 mi ENE 8.1 mph - -   Scattered Clouds
8:00 PM 77.0 °F - 64.4 °F 65% 29.98 in 6.2 mi ENE 8.1 mph - N/A   Partly Cloudy
8:30 PM 75.2 °F - 64.4 °F 69% 29.98 in - East 6.9 mph - N/A   Clear
9:00 PM 76 °F - 65 °F 61% 29.99 in - East 3.5 mph - -  
9:00 PM 73.4 °F - 64.4 °F 73% 29.98 in - Variable 2.3 mph - N/A   Clear
9:30 PM 71.6 °F - 64.4 °F 78% 29.98 in - Variable 1.2 mph - N/A   Clear
10:00 PM 73 °F - 65 °F 69% 30.00 in - Calm Calm - -  
10:00 PM 71.6 °F - 64.4 °F 78% 30.01 in - Calm Calm - N/A   Clear
10:30 PM 71.6 °F - 64.4 °F 78% 30.01 in - Calm Calm - N/A   Clear
11:00 PM 73 °F - 65 °F 71% 30.02 in 7 mi East 1.2 mph - -   Clear
11:00 PM 71.6 °F - 64.4 °F 78% 30.01 in - Calm Calm - N/A   Clear
11:30 PM 73.4 °F - 64.4 °F 73% 30.04 in - Variable 2.3 mph - N/A   Clear